Weather History for Lexington, KY

Change the Weather History Date:

Monday, August 19, 2013

  Actual Average Record
Temperature  
Mean Temperature 75 °F 75 °F  
Max Temperature 82 °F 86 °F 105 °F (1936)
Min Temperature 67 °F 65 °F 53 °F (1982)
Degree Days  
Heating Degree Days 0 0  
Month to date heating degree days 3 0  
Since 1 June heating degree days 3 11  
Since 1 July heating degree days 3 0  
Cooling Degree Days 10 10  
Month to date cooling degree days 160 207  
Year to date cooling degree days 883 903  
Since 1 June cooling degree days 730 796  
Growing Degree Days 24 (Base 50)    
Moisture  
Dew Point 67 °F    
Average Humidity 79    
Maximum Humidity 100    
Minimum Humidity 58    
Precipitation  
Precipitation T in 0.10 in 2.94 in (1969)
Month to date precipitation 2.98 2.10  
Year to date precipitation 41.48 30.52  
Snow  
Snow 0.00 in 0.00 in - ()
Month to date snowfall 0.0 0.0  
Since 1 June snowfall 0.0 0.0  
Since 1 July snowfall 0.0 0.0  
Snow Depth 0.00 in    
Sea Level Pressure  
Sea Level Pressure 30.12 in    
Wind  
Wind Speed 4 mph (East)    
Max Wind Speed 14 mph    
Max Gust Speed 15 mph    
Visibility 10 miles    
Events Rain    
T = Trace of Precipitation, MM = Missing Value Source: NWS Daily Summary

Daily Weather History Graph

Daily Weather History Graph

Search for Another Location

Airport:

Trip Planner

Search our weather history database for the weather conditions in past years. The results will help you decide how hot, cold, wet, or windy it might be!

Date:

Astronomy

Aug. 19, 2013 Rise Set
Actual Time 6:57 AM EDT 8:26 PM EDT
Civil Twilight 6:29 AM EDT 8:53 PM EDT
Nautical Twilight 5:56 AM EDT 9:27 PM EDT
Astronomical Twilight 5:20 AM EDT 10:02 PM EDT
Moon 7:16 PM EDT (8/19) 5:15 AM EDT (8/19)
Length of Visible Light 14h 24m
Length of Day
13h 28m
Waxing Gibbous, 97% of the Moon is Illuminated
Aug 19
Waxing Gibbous
Aug 20
Full
Aug 28
Last Quarter
Sep 5
New
Sep 12
First Quarter

Hourly Weather History & Observations

Time (EDT) Temp. Heat Index Dew Point Humidity Pressure Visibility Wind Dir Wind Speed Gust Speed Precip Events Conditions
12:54 AM 71.1 °F - 66.0 °F 84% 30.13 in 10.0 mi SE 3.5 mph - N/A   Scattered Clouds
1:54 AM 69.1 °F - 66.0 °F 90% 30.12 in 10.0 mi SE 6.9 mph - N/A   Partly Cloudy
2:54 AM 68.0 °F - 66.0 °F 93% 30.11 in 10.0 mi SSE 4.6 mph - N/A   Clear
3:54 AM 68.0 °F - 66.0 °F 93% 30.12 in 5.0 mi Calm Calm - N/A   Mostly Cloudy
4:54 AM 68.0 °F - 66.0 °F 93% 30.12 in 10.0 mi SSE 3.5 mph - N/A   Overcast
5:54 AM 68.0 °F - 66.0 °F 93% 30.12 in 10.0 mi South 6.9 mph - N/A   Overcast
6:54 AM 66.9 °F - 66.0 °F 97% 30.13 in 10.0 mi SE 4.6 mph - N/A   Partly Cloudy
7:54 AM 68.0 °F - 66.0 °F 93% 30.13 in 7.0 mi Calm Calm - N/A   Clear
8:28 AM 69.1 °F - 66.9 °F 93% 30.16 in 10.0 mi South 3.5 mph - N/A   Partly Cloudy
8:54 AM 71.1 °F - 66.9 °F 87% 30.13 in 10.0 mi Calm Calm - N/A   Clear
9:06 AM 72.0 °F - 66.9 °F 84% 30.16 in 10.0 mi Calm Calm - N/A   Partly Cloudy
9:54 AM 75.9 °F - 68.0 °F 76% 30.13 in 10.0 mi Calm Calm - 0.00 in Rain Light Rain
10:50 AM 77.0 °F - 66.2 °F 69% 30.16 in 10.0 mi Calm Calm - 0.00 in   Mostly Cloudy
10:54 AM 77.0 °F - 66.9 °F 71% 30.14 in 10.0 mi Calm Calm - 0.00 in   Mostly Cloudy
11:54 AM 79.0 °F - 66.9 °F 66% 30.14 in 10.0 mi North 3.5 mph - N/A   Scattered Clouds
12:05 PM 80.1 °F 82.1 °F 66.0 °F 62% 30.16 in 10.0 mi Calm Calm - N/A   Mostly Cloudy
12:54 PM 79.0 °F - 66.9 °F 66% 30.13 in 10.0 mi WNW 3.5 mph - N/A   Overcast
1:27 PM 80.1 °F 82.3 °F 66.9 °F 64% 30.14 in 10.0 mi Calm Calm - N/A   Scattered Clouds
1:54 PM 82.0 °F 84.5 °F 66.9 °F 60% 30.11 in 10.0 mi Calm Calm - N/A   Partly Cloudy
2:54 PM 80.1 °F 82.3 °F 66.9 °F 64% 30.10 in 10.0 mi NNE 4.6 mph - 0.00 in   Mostly Cloudy
3:54 PM 75.9 °F - 68.0 °F 76% 30.10 in 10.0 mi East 10.4 mph - 0.00 in   Overcast
4:54 PM 81.0 °F 84.1 °F 69.1 °F 67% 30.08 in 10.0 mi East 8.1 mph - N/A   Overcast
5:54 PM 81.0 °F 83.0 °F 66.0 °F 60% 30.07 in 10.0 mi ENE 5.8 mph - N/A   Partly Cloudy
6:54 PM 81.0 °F 83.3 °F 66.9 °F 62% 30.07 in 10.0 mi NE 5.8 mph - N/A   Clear
7:54 PM 78.1 °F - 66.9 °F 68% 30.06 in 10.0 mi East 5.8 mph - N/A   Clear
8:54 PM 73.9 °F - 66.0 °F 76% 30.07 in 10.0 mi ENE 5.8 mph - N/A   Clear
9:54 PM 73.0 °F - 66.9 °F 81% 30.09 in 10.0 mi East 5.8 mph - N/A   Clear
10:54 PM 72.0 °F - 66.0 °F 81% 30.11 in 10.0 mi East 3.5 mph - N/A   Clear
11:54 PM 72.0 °F - 66.0 °F 81% 30.10 in 10.0 mi East 5.8 mph - N/A   Clear